Pittsburgh, PA

9:02 AM EDT on May 24, 2017 (GMT -0400)
Pittsburgh International

Weather History for KPIT - November, 2014

Change the Weather History Date:

Saturday, November 1, 2014

  Actual Average Record
Temperature  
Mean Temperature 39 °F 48 °F  
Max Temperature 44 °F 57 °F 80 °F (1950)
Min Temperature 33 °F 39 °F 26 °F (1954)
Degree Days  
Heating Degree Days 26 17  
Month to date heating degree days 26 17  
Since 1 July heating degree days 486 518  
Cooling Degree Days 0 0  
Month to date cooling degree days 0 0  
Year to date cooling degree days 700 736  
Moisture  
Dew Point 35 °F    
Average Humidity 85    
Maximum Humidity 100    
Minimum Humidity 70    
Precipitation  
Precipitation 0.04 in 0.10 in 1.13 in (1897)
Month to date precipitation 0.04 0.10  
Year to date precipitation 32.28 32.21  
Snow  
Snow T in 0.00 in 1.70 in (1993)
Month to date snowfall T 0.0  
Since 1 July snowfall T 0.4  
Snow Depth 0.00 in    
Sea Level Pressure  
Sea Level Pressure 30.05 in    
Wind  
Wind Speed 14 mph (North)    
Max Wind Speed 25 mph    
Max Gust Speed 33 mph    
Visibility 9 miles    
Events Rain    
T = Trace of Precipitation, MM = Missing Value Source: NWS Daily Summary

Daily Weather History Graph

Daily Weather History Graph

Search for Another Location

Airport or City:

Trip Planner

Search our weather history database for the weather conditions in past years. The results will help you decide how hot, cold, wet, or windy it might be!

Date:

Astronomy

Nov. 01, 2014 Rise Set
Actual Time 7:50 AM EDT 6:17 PM EDT
Civil Twilight 7:22 AM EDT 6:45 PM EDT
Nautical Twilight 6:50 AM EDT 7:18 PM EDT
Astronomical Twilight 6:18 AM EDT 7:49 PM EDT
Moon 3:11 PM EDT (11/1) 1:43 AM EDT (11/1)
Length of Visible Light 11h 23m
Length of Day
10h 26m
Waxing Gibbous, 67% of the Moon is Illuminated
Nov 1
Waxing Gibbous
Nov 6
Full
Nov 14
Last Quarter
Nov 22
New
Nov 29
First Quarter

Hourly Weather History & Observations

Time (EDT) Temp. Windchill Dew Point Humidity Pressure Visibility Wind Dir Wind Speed Gust Speed Precip Events Conditions
12:18 AM 41.0 °F 36.4 °F 39.0 °F 93% 29.88 in 7.0 mi NE 6.9 mph - 0.00 in   Light Drizzle
12:51 AM 41.0 °F 35.8 °F 39.9 °F 96% 29.92 in 7.0 mi North 8.1 mph - 0.00 in   Light Drizzle
1:51 AM 41.0 °F 35.8 °F 39.9 °F 96% 29.92 in 5.0 mi NNE 8.1 mph - 0.00 in   Light Drizzle
2:51 AM 41.0 °F 35.2 °F 39.9 °F 96% 29.92 in 5.0 mi NNE 9.2 mph - 0.01 in   Light Drizzle
3:51 AM 41.0 °F 34.7 °F 39.0 °F 93% 29.93 in 6.0 mi North 10.4 mph - 0.00 in   Light Drizzle
4:51 AM 41.0 °F 35.8 °F 39.0 °F 93% 29.94 in 7.0 mi NNE 8.1 mph - 0.01 in   Overcast
5:51 AM 41.0 °F 35.2 °F 39.0 °F 93% 29.96 in 6.0 mi NNE 9.2 mph - 0.00 in Rain Light Rain
6:01 AM 41.0 °F 35.2 °F 39.0 °F 93% 29.93 in 6.0 mi NNE 9.2 mph - 0.00 in Rain Light Rain
6:51 AM 39.9 °F 33.9 °F 39.0 °F 97% 29.99 in 7.0 mi North 9.2 mph - 0.02 in Rain Light Rain
7:51 AM 39.9 °F 33.4 °F 39.0 °F 97% 30.01 in 7.0 mi North 10.4 mph - 0.01 in Rain Light Rain
8:51 AM 41.0 °F 34.7 °F 39.0 °F 93% 30.03 in 8.0 mi North 10.4 mph - 0.00 in   Light Drizzle
9:51 AM 41.0 °F 33.5 °F 37.9 °F 89% 30.05 in 10.0 mi North 13.8 mph 24.2 mph 0.00 in   Overcast
10:14 AM 41.0 °F 33.5 °F 37.9 °F 89% 30.01 in 10.0 mi North 13.8 mph - N/A   Overcast
10:51 AM 44.1 °F 36.5 °F 39.9 °F 85% 30.05 in 10.0 mi North 17.3 mph - N/A   Overcast
11:51 AM 43.0 °F 34.5 °F 37.0 °F 80% 30.06 in 10.0 mi North 19.6 mph 28.8 mph N/A   Overcast
12:51 PM 43.0 °F 35.7 °F 35.1 °F 74% 30.07 in 10.0 mi North 15.0 mph 24.2 mph N/A   Overcast
1:51 PM 43.0 °F 35.7 °F 35.1 °F 74% 30.06 in 10.0 mi NNW 15.0 mph - N/A   Overcast
2:51 PM 42.1 °F 34.2 °F 34.0 °F 73% 30.07 in 10.0 mi NNW 16.1 mph - N/A   Overcast
3:51 PM 39.0 °F 29.3 °F 35.1 °F 86% 30.09 in 9.0 mi NNW 19.6 mph 24.2 mph 0.00 in   Overcast
4:51 PM 39.0 °F 28.5 °F 32.0 °F 76% 30.11 in 10.0 mi NNW 23.0 mph 32.2 mph 0.00 in   Overcast
5:51 PM 39.0 °F 29.9 °F 30.9 °F 73% 30.13 in 10.0 mi NNW 17.3 mph - N/A   Overcast
6:51 PM 37.9 °F 28.9 °F 30.9 °F 76% 30.16 in 10.0 mi NNW 16.1 mph - 0.00 in   Light Drizzle
7:51 PM 37.0 °F 28.9 °F 30.9 °F 79% 30.17 in 10.0 mi NNW 12.7 mph - 0.00 in   Overcast
8:40 PM 36.0 °F 27.1 °F 30.0 °F 79% 30.13 in 10.0 mi North 13.8 mph - N/A   Mostly Cloudy
8:51 PM 36.0 °F 26.7 °F 28.9 °F 76% 30.19 in 10.0 mi North 15.0 mph - N/A   Mostly Cloudy
9:51 PM 35.1 °F 26.9 °F 28.0 °F 76% 30.20 in 10.0 mi North 11.5 mph - N/A   Scattered Clouds
10:51 PM 34.0 °F 25.5 °F 27.0 °F 75% 30.21 in 10.0 mi NNW 11.5 mph - N/A   Partly Cloudy
11:51 PM 33.1 °F 24.4 °F 26.1 °F 75% 30.22 in 10.0 mi NNW 11.5 mph - N/A   Scattered Clouds